sat.trackr.live / text

‹ back to catalog

STARLINK-4146

NORAD 53294 · 2022-086BE

PAYLOAD ACTIVE UNKNOWN

§ Identity

Operator
Country
US
Launch date
2022-07-24
Launch site
AFETR
Launch vehicle
Mass (kg)
RCS (m²)

Purposes: comms

External: N2YO · Heavens-Above · Gunter

§ Orbital elements

Epoch: 2026-09-19T20:11:44.140704Z

Period
93.79 min
Inclination
53.1593°
Eccentricity
0.0000930
Mean motion
15.35400213 rev/d
Perigee alt
459.1 km
Apogee alt
460.4 km
Semi-major
6,837.9 km
B*
9.2931e-7
RAAN
9.6691°
Arg perigee
67.4784°
Mean anomaly
292.6317°
Rev number
23,085

§ Raw data

STARLINK-41461 53294U 22086BE  26262.84148311 -.00000348  00000+0  92931-6 0  99942 53294  53.1593   9.6691 0000930  67.4784 292.6317 15.35400213230852

JSON: /api/v1/satellites/53294 · /tle

For live sub-satellite position, see the globe view (requires WebGL).

§ Visibility from observer

Set your observer location to see the next 7 days of passes ≥ 10°. The values pass through the URL so the page stays shareable.

No JS? Fill the form by hand. The geolocation button needs JavaScript.